| time (UTC) | temp F | wind direction | speed MPH | gust MPH | rain 1hr in | rain 24hr in | rain mn in | humidity % | barometer mb |
| 20260508143510 | 51 | 0 | 0.0 | 0.0 | 0.00 | 0.00 | 0.00 | 82 | 1031.2 |
| 20260508143028 | 51 | 0 | 0.0 | 0.0 | 0.00 | 0.00 | 0.00 | 81 | 1031.1 |
| 20260508142511 | 51 | 0 | 0.0 | 0.0 | 0.00 | 0.00 | 0.00 | 81 | 1031.1 |
| 20260508142011 | 51 | 0 | 0.0 | 0.0 | 0.00 | 0.00 | 0.00 | 81 | 1031.1 |
| 20260508141530 | 51 | 0 | 0.0 | 0.0 | 0.00 | 0.00 | 0.00 | 81 | 1031.1 |
| 20260508141010 | 51 | 0 | 0.0 | 0.0 | 0.00 | 0.00 | 0.00 | 81 | 1031.1 |
| 20260508140511 | 51 | 0 | 0.0 | 0.0 | 0.00 | 0.00 | 0.00 | 81 | 1031.1 |
| 20260508140029 | 51 | 0 | 0.0 | 0.0 | 0.00 | 0.00 | 0.00 | 81 | 1031.1 |
| 20260508135514 | 51 | 0 | 0.0 | 0.0 | 0.00 | 0.00 | 0.00 | 81 | 1031.2 |
| 20260508135011 | 52 | 0 | 0.0 | 0.0 | 0.00 | 0.00 | 0.00 | 81 | 1031.1 |
| 20260508134531 | 52 | 0 | 0.0 | 0.0 | 0.00 | 0.00 | 0.00 | 81 | 1031.2 |
| 20260508134010 | 52 | 0 | 0.0 | 0.0 | 0.00 | 0.00 | 0.00 | 80 | 1031.2 |
| 20260508133513 | 52 | 0 | 0.0 | 0.0 | 0.00 | 0.00 | 0.00 | 80 | 1031.3 |
| 20260508133028 | 52 | 0 | 0.0 | 0.0 | 0.00 | 0.00 | 0.00 | 80 | 1031.4 |
| 20260508132511 | 52 | 0 | 0.0 | 0.0 | 0.00 | 0.00 | 0.00 | 80 | 1031.4 |
| 20260508132010 | 52 | 0 | 0.0 | 0.0 | 0.00 | 0.00 | 0.00 | 80 | 1031.4 |
| 20260508131530 | 53 | 0 | 0.0 | 0.0 | 0.00 | 0.00 | 0.00 | 80 | 1031.5 |
| 20260508131010 | 53 | 0 | 0.0 | 0.0 | 0.00 | 0.00 | 0.00 | 80 | 1031.4 |
| 20260508130516 | 53 | 0 | 0.0 | 0.0 | 0.00 | 0.00 | 0.00 | 80 | 1031.5 |
| 20260508130031 | 53 | 0 | 0.0 | 0.0 | 0.00 | 0.00 | 0.00 | 80 | 1031.6 |
| 20260508125512 | 53 | 0 | 0.0 | 0.0 | 0.00 | 0.00 | 0.00 | 80 | 1031.6 |
| 20260508125010 | 53 | 0 | 0.0 | 0.0 | 0.00 | 0.00 | 0.00 | 80 | 1031.7 |
| 20260508124530 | 53 | 0 | 0.0 | 0.0 | 0.00 | 0.00 | 0.00 | 80 | 1031.6 |
| 20260508124009 | 53 | 0 | 0.0 | 0.0 | 0.00 | 0.00 | 0.00 | 80 | 1031.6 |
| 20260508123512 | 54 | 0 | 0.0 | 0.0 | 0.00 | 0.00 | 0.00 | 80 | 1031.7 |
| 20260508123028 | 54 | 0 | 0.0 | 0.0 | 0.00 | 0.00 | 0.00 | 80 | 1031.6 |
| 20260508122508 | 54 | 0 | 0.0 | 0.0 | 0.00 | 0.00 | 0.00 | 80 | 1031.7 |
| 20260508122013 | 54 | 0 | 0.0 | 0.0 | 0.00 | 0.00 | 0.00 | 80 | 1031.6 |
| 20260508121527 | 54 | 0 | 0.0 | 0.0 | 0.00 | 0.00 | 0.00 | 80 | 1031.7 |
| 20260508121011 | 54 | 0 | 0.0 | 1.0 | 0.00 | 0.00 | 0.00 | 80 | 1031.7 |
| 20260508120510 | 54 | 0 | 0.0 | 1.0 | 0.00 | 0.00 | 0.00 | 80 | 1031.7 |
| 20260508120036 | 54 | 0 | 0.0 | 1.0 | 0.00 | 0.00 | 0.00 | 80 | 1031.7 |
| 20260508115510 | 54 | 0 | 0.0 | 2.0 | 0.00 | 0.00 | 0.00 | 80 | 1031.7 |
| 20260508115008 | 54 | 0 | 0.0 | 2.0 | 0.00 | 0.00 | 0.00 | 79 | 1031.6 |
| 20260508114527 | 54 | 0 | 0.0 | 2.0 | 0.00 | 0.00 | 0.00 | 79 | 1031.7 |
| 20260508114014 | 55 | 0 | 0.0 | 1.0 | 0.00 | 0.00 | 0.00 | 79 | 1031.8 |
| 20260508113509 | 55 | 0 | 0.0 | 1.0 | 0.00 | 0.00 | 0.00 | 79 | 1031.7 |
| 20260508113030 | 55 | 0 | 0.0 | 0.0 | 0.00 | 0.00 | 0.00 | 79 | 1031.6 |
| 20260508112515 | 55 | 0 | 0.0 | 0.0 | 0.00 | 0.00 | 0.00 | 79 | 1031.6 |
| 20260508112008 | 55 | 0 | 0.0 | 0.0 | 0.00 | 0.00 | 0.00 | 79 | 1031.5 |
| 20260508111531 | 56 | 0 | 0.0 | 0.0 | 0.00 | 0.00 | 0.00 | 79 | 1031.5 |
| 20260508111008 | 56 | 0 | 0.0 | 0.0 | 0.00 | 0.00 | 0.00 | 79 | 1031.5 |
| 20260508110507 | 56 | 0 | 0.0 | 0.0 | 0.00 | 0.00 | 0.00 | 79 | 1031.5 |
| 20260508110029 | 56 | 0 | 0.0 | 0.0 | 0.00 | 0.00 | 0.00 | 79 | 1031.4 |
| 20260508105509 | 56 | 0 | 0.0 | 0.0 | 0.00 | 0.00 | 0.00 | 79 | 1031.5 |
| 20260508105012 | 56 | 0 | 0.0 | 0.0 | 0.00 | 0.00 | 0.00 | 79 | 1031.5 |
| 20260508104528 | 57 | 0 | 0.0 | 1.0 | 0.00 | 0.00 | 0.00 | 79 | 1031.5 |
| 20260508104008 | 57 | 0 | 0.0 | 1.0 | 0.00 | 0.00 | 0.00 | 79 | 1031.4 |
| 20260508103511 | 57 | 239 | 0.0 | 1.0 | 0.00 | 0.00 | 0.00 | 78 | 1031.5 |
| 20260508103026 | 57 | 0 | 0.0 | 1.0 | 0.00 | 0.00 | 0.00 | 78 | 1031.4 |
| 20260508102508 | 57 | 0 | 0.0 | 2.0 | 0.00 | 0.00 | 0.00 | 79 | 1031.5 |
| 20260508102013 | 58 | 0 | 0.0 | 2.0 | 0.00 | 0.00 | 0.00 | 79 | 1031.4 |
| 20260508101526 | 58 | 0 | 0.0 | 1.0 | 0.00 | 0.00 | 0.00 | 78 | 1031.4 |
| 20260508101008 | 58 | 0 | 0.0 | 1.0 | 0.00 | 0.00 | 0.00 | 78 | 1031.4 |
| 20260508100508 | 58 | 0 | 0.0 | 0.0 | 0.00 | 0.00 | 0.00 | 79 | 1031.3 |
| 20260508100027 | 58 | 0 | 0.0 | 0.0 | 0.00 | 0.00 | 0.00 | 79 | 1031.3 |
| 20260508095508 | 58 | 0 | 0.0 | 1.0 | 0.00 | 0.00 | 0.00 | 79 | 1031.2 |
| 20260508095008 | 59 | 0 | 0.0 | 1.0 | 0.00 | 0.00 | 0.00 | 79 | 1031.3 |
| 20260508094526 | 59 | 0 | 0.0 | 1.0 | 0.00 | 0.00 | 0.00 | 78 | 1031.4 |
| 20260508094009 | 59 | 0 | 0.0 | 1.0 | 0.00 | 0.00 | 0.00 | 78 | 1031.3 |
| 20260508093507 | 59 | 0 | 0.0 | 2.0 | 0.00 | 0.00 | 0.00 | 79 | 1031.2 |
| 20260508093031 | 59 | 0 | 0.0 | 2.0 | 0.00 | 0.00 | 0.00 | 78 | 1031.3 |
| 20260508092509 | 59 | 0 | 0.0 | 2.0 | 0.00 | 0.00 | 0.00 | 78 | 1031.1 |
| 20260508092008 | 59 | 0 | 0.0 | 1.0 | 0.00 | 0.00 | 0.00 | 78 | 1031.0 |
| 20260508091532 | 59 | 0 | 0.0 | 1.0 | 0.00 | 0.00 | 0.00 | 78 | 1031.1 |
| 20260508091009 | 59 | 0 | 0.0 | 2.0 | 0.00 | 0.00 | 0.00 | 78 | 1031.1 |
| 20260508090510 | 59 | 0 | 0.0 | 3.0 | 0.00 | 0.00 | 0.00 | 78 | 1031.0 |
| 20260508090028 | 59 | 0 | 0.0 | 3.0 | 0.00 | 0.00 | 0.00 | 78 | 1031.0 |
| 20260508085510 | 59 | 0 | 0.0 | 3.0 | 0.00 | 0.00 | 0.00 | 77 | 1031.0 |
| 20260508085008 | 60 | 239 | 0.0 | 3.0 | 0.00 | 0.00 | 0.00 | 77 | 1030.9 |
| 20260508084525 | 60 | 240 | 0.0 | 3.0 | 0.00 | 0.00 | 0.00 | 77 | 1030.9 |
| 20260508084008 | 60 | 0 | 0.0 | 3.0 | 0.00 | 0.00 | 0.00 | 77 | 1030.8 |
| 20260508083508 | 60 | 0 | 0.0 | 7.0 | 0.00 | 0.00 | 0.00 | 77 | 1030.9 |
| 20260508083028 | 60 | 0 | 0.0 | 7.0 | 0.00 | 0.00 | 0.00 | 76 | 1030.8 |
| 20260508082512 | 60 | 237 | 0.0 | 5.0 | 0.00 | 0.00 | 0.00 | 76 | 1030.8 |
| 20260508082011 | 61 | 0 | 1.0 | 5.0 | 0.00 | 0.00 | 0.00 | 75 | 1030.8 |
| 20260508081539 | 61 | 238 | 1.0 | 4.0 | 0.00 | 0.00 | 0.00 | 75 | 1030.8 |
| 20260508081008 | 61 | 0 | 0.0 | 4.0 | 0.00 | 0.00 | 0.00 | 75 | 1030.6 |
| 20260508080511 | 61 | 240 | 0.0 | 7.0 | 0.00 | 0.00 | 0.00 | 75 | 1030.7 |
| 20260508080027 | 62 | 240 | 0.0 | 7.0 | 0.00 | 0.00 | 0.00 | 75 | 1030.6 |
| 20260508075512 | 62 | 0 | 1.0 | 7.0 | 0.00 | 0.00 | 0.00 | 75 | 1030.6 |
| 20260508075008 | 62 | 246 | 1.0 | 7.0 | 0.00 | 0.00 | 0.00 | 74 | 1030.5 |
| 20260508074529 | 62 | 251 | 3.0 | 7.0 | 0.00 | 0.00 | 0.00 | 74 | 1030.6 |
| 20260508074011 | 62 | 238 | 2.0 | 5.0 | 0.00 | 0.00 | 0.00 | 74 | 1030.4 |
| 20260508073509 | 62 | 242 | 1.0 | 5.0 | 0.00 | 0.00 | 0.00 | 74 | 1030.5 |
| 20260508073027 | 63 | 240 | 0.0 | 9.0 | 0.00 | 0.00 | 0.00 | 73 | 1030.6 |
| 20260508072508 | 63 | 236 | 1.0 | 9.0 | 0.00 | 0.00 | 0.00 | 73 | 1030.5 |
| 20260508072013 | 63 | 0 | 1.0 | 8.0 | 0.00 | 0.00 | 0.00 | 73 | 1030.5 |
| 20260508071528 | 63 | 257 | 4.0 | 8.0 | 0.00 | 0.00 | 0.00 | 73 | 1030.5 |
| 20260508071008 | 63 | 360 | 2.0 | 7.0 | 0.00 | 0.00 | 0.00 | 73 | 1030.5 |
| 20260508070508 | 63 | 262 | 0.0 | 4.0 | 0.00 | 0.00 | 0.00 | 73 | 1030.4 |
| 20260508070027 | 63 | 360 | 1.0 | 7.0 | 0.00 | 0.00 | 0.00 | 73 | 1030.4 |
| 20260508065509 | 63 | 265 | 1.0 | 7.0 | 0.00 | 0.00 | 0.00 | 73 | 1030.5 |
| 20260508065009 | 63 | 221 | 1.0 | 7.0 | 0.00 | 0.00 | 0.00 | 73 | 1030.4 |
| 20260508064530 | 64 | 0 | 2.0 | 8.0 | 0.00 | 0.00 | 0.00 | 72 | 1030.5 |
| 20260508064008 | 64 | 240 | 1.0 | 8.0 | 0.00 | 0.00 | 0.00 | 72 | 1030.5 |
| 20260508063514 | 64 | 259 | 4.0 | 8.0 | 0.00 | 0.00 | 0.00 | 72 | 1030.5 |
| 20260508063027 | 64 | 360 | 3.0 | 8.0 | 0.00 | 0.00 | 0.00 | 71 | 1030.5 |
| 20260508062508 | 64 | 259 | 1.0 | 5.0 | 0.00 | 0.00 | 0.00 | 71 | 1030.4 |
| 20260508062014 | 64 | 244 | 1.0 | 5.0 | 0.00 | 0.00 | 0.00 | 71 | 1030.4 |
| 20260508061529 | 64 | 248 | 1.0 | 9.0 | 0.00 | 0.00 | 0.00 | 71 | 1030.5 |
| 20260508061009 | 64 | 360 | 2.0 | 10.0 | 0.00 | 0.00 | 0.00 | 70 | 1030.4 |
| 20260508060514 | 65 | 252 | 2.0 | 10.0 | 0.00 | 0.00 | 0.00 | 70 | 1030.5 |
| 20260508060027 | 65 | 214 | 2.0 | 8.0 | 0.00 | 0.00 | 0.00 | 70 | 1030.4 |
| 20260508055507 | 65 | 0 | 1.0 | 7.0 | 0.00 | 0.00 | 0.00 | 70 | 1030.3 |
| 20260508055008 | 65 | 288 | 3.0 | 7.0 | 0.00 | 0.00 | 0.00 | 70 | 1030.4 |
| 20260508054526 | 65 | 242 | 2.0 | 8.0 | 0.00 | 0.00 | 0.00 | 70 | 1030.3 |
| 20260508054008 | 65 | 0 | 2.0 | 8.0 | 0.00 | 0.00 | 0.00 | 70 | 1030.4 |
| 20260508053515 | 65 | 360 | 3.0 | 13.0 | 0.00 | 0.00 | 0.00 | 70 | 1030.4 |
| 20260508053030 | 65 | 315 | 2.0 | 13.0 | 0.00 | 0.00 | 0.00 | 71 | 1030.3 |
| 20260508052509 | 65 | 275 | 3.0 | 13.0 | 0.00 | 0.00 | 0.00 | 71 | 1030.1 |
| 20260508052009 | 65 | 360 | 1.0 | 10.0 | 0.00 | 0.00 | 0.00 | 71 | 1030.3 |
| 20260508051534 | 65 | 301 | 3.0 | 10.0 | 0.00 | 0.00 | 0.00 | 70 | 1030.3 |
| 20260508051011 | 65 | 228 | 2.0 | 9.0 | 0.00 | 0.00 | 0.00 | 70 | 1030.4 |
| 20260508050507 | 65 | 263 | 2.0 | 9.0 | 0.00 | 0.00 | 0.00 | 71 | 1030.4 |
| 20260508050026 | 65 | 281 | 2.0 | 10.0 | 0.00 | 0.00 | 0.00 | 72 | 1030.4 |
| 20260508045509 | 65 | 230 | 3.0 | 10.0 | 0.00 | 0.00 | 0.00 | 74 | 1030.3 |
| 20260508045009 | 64 | 360 | 2.0 | 9.0 | 0.00 | 0.00 | 0.00 | 75 | 1030.4 |
| 20260508044528 | 64 | 255 | 2.0 | 8.0 | 0.00 | 0.00 | 0.00 | 76 | 1030.4 |
| 20260508044012 | 64 | 0 | 1.0 | 10.0 | 0.00 | 0.00 | 0.00 | 77 | 1030.6 |
| 20260508043508 | 63 | 261 | 3.0 | 10.0 | 0.00 | 0.00 | 0.00 | 78 | 1030.6 |
| 20260508043029 | 63 | 253 | 3.0 | 10.0 | 0.00 | 0.00 | 0.00 | 79 | 1030.7 |
| 20260508042510 | 63 | 232 | 3.0 | 10.0 | 0.00 | 0.00 | 0.00 | 80 | 1030.6 |
| 20260508042011 | 63 | 276 | 2.0 | 10.0 | 0.00 | 0.00 | 0.00 | 81 | 1030.5 |
| 20260508041529 | 63 | 269 | 3.0 | 10.0 | 0.00 | 0.00 | 0.00 | 82 | 1030.7 |
| 20260508041008 | 63 | 267 | 4.0 | 9.0 | 0.00 | 0.00 | 0.00 | 83 | 1030.8 |
| 20260508040508 | 63 | 260 | 1.0 | 8.0 | 0.00 | 0.00 | 0.00 | 84 | 1030.8 |
| 20260508040030 | 62 | 259 | 1.0 | 8.0 | 0.00 | 0.00 | 0.00 | 84 | 1030.8 |
| 20260508035514 | 62 | 250 | 2.0 | 8.0 | 0.00 | 0.00 | 0.00 | 84 | 1030.9 |
| 20260508035009 | 62 | 225 | 1.0 | 7.0 | 0.00 | 0.00 | 0.00 | 83 | 1031.1 |
| 20260508034532 | 62 | 0 | 2.0 | 8.0 | 0.00 | 0.00 | 0.00 | 83 | 1031.1 |
| 20260508034008 | 62 | 244 | 2.0 | 9.0 | 0.00 | 0.00 | 0.00 | 83 | 1031.2 |
| 20260508033508 | 62 | 204 | 2.0 | 9.0 | 0.00 | 0.00 | 0.00 | 83 | 1031.3 |
| 20260508033027 | 62 | 254 | 4.0 | 9.0 | 0.00 | 0.00 | 0.00 | 83 | 1031.4 |
| 20260508032509 | 62 | 206 | 2.0 | 9.0 | 0.00 | 0.00 | 0.00 | 83 | 1031.3 |
| 20260508032011 | 62 | 261 | 4.0 | 9.0 | 0.00 | 0.00 | 0.00 | 83 | 1031.3 |
| 20260508031528 | 62 | 225 | 1.0 | 8.0 | 0.00 | 0.00 | 0.00 | 83 | 1031.4 |
| 20260508031008 | 62 | 205 | 3.0 | 8.0 | 0.00 | 0.00 | 0.00 | 83 | 1031.5 |
| 20260508030508 | 62 | 253 | 2.0 | 6.0 | 0.00 | 0.00 | 0.00 | 83 | 1031.7 |
| 20260508030030 | 61 | 253 | 1.0 | 7.0 | 0.00 | 0.00 | 0.00 | 83 | 1031.6 |
| 20260508025510 | 61 | 252 | 1.0 | 7.0 | 0.00 | 0.00 | 0.00 | 83 | 1031.7 |
| 20260508025009 | 61 | 252 | 2.0 | 6.0 | 0.00 | 0.00 | 0.00 | 83 | 1031.8 |
| 20260508024528 | 61 | 225 | 1.0 | 6.0 | 0.00 | 0.00 | 0.00 | 83 | 1031.8 |
| 20260508024007 | 61 | 214 | 1.0 | 7.0 | 0.00 | 0.00 | 0.00 | 82 | 1032.1 |
| 20260508023511 | 61 | 211 | 3.0 | 7.0 | 0.00 | 0.00 | 0.00 | 82 | 1032.2 |
| 20260508023027 | 61 | 269 | 2.0 | 8.0 | 0.00 | 0.00 | 0.00 | 82 | 1032.2 |
| 20260508022507 | 61 | 292 | 4.0 | 8.0 | 0.00 | 0.00 | 0.00 | 82 | 1032.2 |
| 20260508022010 | 61 | 265 | 2.0 | 8.0 | 0.00 | 0.00 | 0.00 | 83 | 1032.1 |
| 20260508021529 | 61 | 266 | 2.0 | 8.0 | 0.00 | 0.00 | 0.00 | 83 | 1032.3 |
| 20260508021010 | 61 | 259 | 2.0 | 7.0 | 0.00 | 0.00 | 0.00 | 83 | 1032.3 |
| 20260508020511 | 61 | 215 | 2.0 | 10.0 | 0.00 | 0.00 | 0.00 | 83 | 1032.5 |
| 20260508020036 | 61 | 190 | 3.0 | 10.0 | 0.00 | 0.00 | 0.00 | 83 | 1032.5 |
| 20260508015512 | 61 | 0 | 1.0 | 4.0 | 0.00 | 0.00 | 0.00 | 83 | 1032.5 |
| 20260508015011 | 61 | 234 | 1.0 | 6.0 | 0.00 | 0.00 | 0.00 | 82 | 1032.6 |
| 20260508014530 | 61 | 0 | 1.0 | 8.0 | 0.00 | 0.00 | 0.00 | 82 | 1032.7 |
| 20260508014009 | 61 | 226 | 3.0 | 8.0 | 0.00 | 0.00 | 0.00 | 82 | 1032.8 |
| 20260508013514 | 61 | 246 | 1.0 | 7.0 | 0.00 | 0.00 | 0.00 | 82 | 1032.6 |
| 20260508013028 | 60 | 246 | 1.0 | 7.0 | 0.00 | 0.00 | 0.00 | 82 | 1032.8 |
| 20260508012512 | 60 | 0 | 2.0 | 5.0 | 0.00 | 0.00 | 0.00 | 81 | 1032.8 |
| 20260508012010 | 60 | 243 | 1.0 | 7.0 | 0.00 | 0.00 | 0.00 | 81 | 1032.9 |
| 20260508011528 | 60 | 243 | 1.0 | 7.0 | 0.00 | 0.00 | 0.00 | 81 | 1033.0 |
| 20260508011011 | 60 | 243 | 2.0 | 7.0 | 0.00 | 0.00 | 0.00 | 81 | 1033.1 |
| 20260508010511 | 60 | 246 | 1.0 | 4.0 | 0.00 | 0.00 | 0.00 | 80 | 1033.1 |
| 20260508010033 | 60 | 246 | 1.0 | 4.0 | 0.00 | 0.00 | 0.00 | 80 | 1033.1 |
| 20260508005512 | 60 | 245 | 0.0 | 3.0 | 0.00 | 0.00 | 0.00 | 80 | 1032.9 |
| 20260508005012 | 60 | 0 | 0.0 | 3.0 | 0.00 | 0.00 | 0.00 | 79 | 1032.8 |
| 20260508004529 | 60 | 0 | 0.0 | 3.0 | 0.00 | 0.00 | 0.00 | 79 | 1032.9 |
| 20260508004011 | 60 | 0 | 0.0 | 5.0 | 0.00 | 0.00 | 0.00 | 78 | 1032.8 |
| 20260508003510 | 60 | 0 | 0.0 | 5.0 | 0.00 | 0.00 | 0.00 | 78 | 1032.9 |
| 20260508003029 | 60 | 245 | 1.0 | 5.0 | 0.00 | 0.00 | 0.00 | 77 | 1032.9 |
| 20260508002512 | 60 | 0 | 0.0 | 5.0 | 0.00 | 0.00 | 0.00 | 77 | 1032.7 |
| 20260508002011 | 60 | 0 | 0.0 | 7.0 | 0.00 | 0.00 | 0.00 | 77 | 1032.7 |
| 20260508001528 | 60 | 0 | 1.0 | 7.0 | 0.00 | 0.00 | 0.00 | 76 | 1032.7 |
| 20260508001011 | 60 | 0 | 1.0 | 7.0 | 0.00 | 0.00 | 0.00 | 76 | 1032.6 |
| 20260508000512 | 60 | 0 | 0.0 | 3.0 | 0.00 | 0.00 | 0.00 | 76 | 1032.5 |
| 20260508000029 | 60 | 0 | 0.0 | 6.0 | 0.00 | 0.00 | 0.00 | 76 | 1032.5 |
| 20260507235517 | 60 | 0 | 0.0 | 9.0 | 0.00 | 0.00 | 0.00 | 76 | 1032.7 |
| 20260507235009 | 59 | 266 | 0.0 | 9.0 | 0.00 | 0.00 | 0.00 | 76 | 1032.7 |
| 20260507234538 | 59 | 256 | 1.0 | 9.0 | 0.00 | 0.00 | 0.00 | 76 | 1032.6 |
| 20260507234008 | 59 | 257 | 2.0 | 9.0 | 0.00 | 0.00 | 0.00 | 76 | 1032.5 |
| 20260507233511 | 59 | 0 | 2.0 | 9.0 | 0.00 | 0.00 | 0.00 | 76 | 1032.5 |
| 20260507233032 | 60 | 253 | 1.0 | 7.0 | 0.00 | 0.00 | 0.00 | 76 | 1032.5 |
| 20260507232514 | 59 | 257 | 0.0 | 6.0 | 0.00 | 0.00 | 0.00 | 75 | 1032.5 |
| 20260507232011 | 59 | 261 | 0.0 | 8.0 | 0.00 | 0.00 | 0.00 | 75 | 1032.4 |
| 20260507231528 | 59 | 261 | 1.0 | 8.0 | 0.00 | 0.00 | 0.00 | 75 | 1032.4 |
| 20260507231010 | 59 | 0 | 2.0 | 7.0 | 0.00 | 0.00 | 0.00 | 75 | 1032.3 |
| 20260507230512 | 59 | 0 | 0.0 | 3.0 | 0.00 | 0.00 | 0.00 | 75 | 1032.3 |
| 20260507230030 | 59 | 259 | 0.0 | 6.0 | 0.00 | 0.00 | 0.00 | 75 | 1032.3 |
| 20260507225512 | 59 | 0 | 1.0 | 6.0 | 0.00 | 0.00 | 0.00 | 75 | 1032.2 |
| 20260507225012 | 59 | 0 | 0.0 | 4.0 | 0.00 | 0.00 | 0.00 | 75 | 1032.2 |
| 20260507224533 | 59 | 259 | 1.0 | 6.0 | 0.00 | 0.00 | 0.00 | 75 | 1032.2 |
| 20260507224011 | 59 | 257 | 1.0 | 6.0 | 0.00 | 0.00 | 0.00 | 76 | 1032.0 |
| 20260507223511 | 58 | 257 | 1.0 | 4.0 | 0.00 | 0.00 | 0.00 | 76 | 1032.1 |
| 20260507223027 | 58 | 258 | 1.0 | 8.0 | 0.00 | 0.00 | 0.00 | 76 | 1032.0 |
| 20260507222512 | 58 | 0 | 0.0 | 8.0 | 0.00 | 0.00 | 0.00 | 76 | 1031.9 |
| 20260507222012 | 58 | 259 | 2.0 | 8.0 | 0.00 | 0.00 | 0.00 | 77 | 1031.8 |
| 20260507221529 | 58 | 0 | 0.0 | 8.0 | 0.00 | 0.00 | 0.00 | 77 | 1031.8 |
| 20260507221011 | 58 | 0 | 1.0 | 8.0 | 0.00 | 0.00 | 0.00 | 77 | 1031.8 |
| 20260507220510 | 57 | 263 | 2.0 | 8.0 | 0.00 | 0.00 | 0.00 | 78 | 1031.7 |
| 20260507220030 | 57 | 254 | 1.0 | 10.0 | 0.00 | 0.00 | 0.00 | 78 | 1031.6 |
| 20260507215508 | 57 | 254 | 2.0 | 10.0 | 0.00 | 0.00 | 0.00 | 78 | 1031.6 |
| 20260507215012 | 57 | 213 | 0.0 | 4.0 | 0.00 | 0.00 | 0.00 | 78 | 1031.4 |
| 20260507214530 | 57 | 213 | 0.0 | 4.0 | 0.00 | 0.00 | 0.00 | 78 | 1031.4 |
| 20260507214009 | 56 | 0 | 0.0 | 0.0 | 0.00 | 0.00 | 0.00 | 78 | 1031.4 |
| 20260507213514 | 56 | 0 | 0.0 | 0.0 | 0.00 | 0.00 | 0.00 | 78 | 1031.4 |
| 20260507213035 | 56 | 0 | 0.0 | 0.0 | 0.00 | 0.00 | 0.00 | 78 | 1031.4 |
| 20260507212511 | 56 | 0 | 0.0 | 0.0 | 0.00 | 0.00 | 0.00 | 78 | 1031.5 |
| 20260507212009 | 56 | 0 | 0.0 | 0.0 | 0.00 | 0.00 | 0.00 | 78 | 1031.4 |
| 20260507211528 | 56 | 0 | 0.0 | 0.0 | 0.00 | 0.00 | 0.00 | 78 | 1031.4 |
| 20260507211008 | 56 | 0 | 0.0 | 0.0 | 0.00 | 0.00 | 0.00 | 78 | 1031.3 |
| 20260507210518 | 57 | 0 | 0.0 | 0.0 | 0.00 | 0.00 | 0.00 | 78 | 1031.3 |
| 20260507210030 | 57 | 0 | 0.0 | 0.0 | 0.00 | 0.00 | 0.00 | 78 | 1031.2 |
| 20260507205509 | 57 | 0 | 0.0 | 0.0 | 0.00 | 0.00 | 0.00 | 78 | 1031.3 |
| 20260507205012 | 57 | 0 | 0.0 | 0.0 | 0.00 | 0.00 | 0.00 | 78 | 1031.3 |
| 20260507204527 | 57 | 0 | 0.0 | 0.0 | 0.00 | 0.00 | 0.00 | 78 | 1031.3 |
| 20260507204012 | 57 | 0 | 0.0 | 0.0 | 0.00 | 0.00 | 0.00 | 78 | 1031.3 |
| 20260507203512 | 57 | 0 | 0.0 | 0.0 | 0.00 | 0.00 | 0.00 | 78 | 1031.3 |
| 20260507203028 | 57 | 0 | 0.0 | 0.0 | 0.00 | 0.00 | 0.00 | 78 | 1031.3 |
| 20260507202508 | 57 | 0 | 0.0 | 0.0 | 0.00 | 0.00 | 0.00 | 78 | 1031.4 |
| 20260507202013 | 57 | 0 | 0.0 | 0.0 | 0.00 | 0.00 | 0.00 | 78 | 1031.3 |
| 20260507201528 | 57 | 0 | 0.0 | 0.0 | 0.00 | 0.00 | 0.00 | 78 | 1031.2 |
| 20260507201015 | 57 | 0 | 0.0 | 0.0 | 0.00 | 0.00 | 0.00 | 78 | 1031.2 |
| 20260507200510 | 57 | 0 | 0.0 | 0.0 | 0.00 | 0.00 | 0.00 | 78 | 1031.2 |
| 20260507200030 | 57 | 0 | 0.0 | 0.0 | 0.00 | 0.00 | 0.00 | 77 | 1031.2 |
| 20260507195512 | 57 | 0 | 0.0 | 1.0 | 0.00 | 0.00 | 0.00 | 77 | 1031.3 |
| 20260507195011 | 57 | 0 | 0.0 | 1.0 | 0.00 | 0.00 | 0.00 | 77 | 1031.3 |
| 20260507194532 | 57 | 0 | 0.0 | 2.0 | 0.00 | 0.00 | 0.00 | 77 | 1031.3 |
| 20260507194011 | 57 | 0 | 0.0 | 2.0 | 0.00 | 0.00 | 0.00 | 77 | 1031.3 |
| 20260507193513 | 57 | 0 | 0.0 | 0.0 | 0.00 | 0.00 | 0.00 | 77 | 1031.4 |
| 20260507193029 | 57 | 0 | 0.0 | 0.0 | 0.00 | 0.00 | 0.00 | 77 | 1031.4 |
| 20260507192509 | 57 | 0 | 0.0 | 0.0 | 0.00 | 0.00 | 0.00 | 77 | 1031.3 |
| 20260507192010 | 57 | 0 | 0.0 | 0.0 | 0.00 | 0.00 | 0.00 | 77 | 1031.3 |
| 20260507191528 | 57 | 0 | 0.0 | 0.0 | 0.00 | 0.00 | 0.00 | 77 | 1031.3 |
| 20260507191009 | 57 | 0 | 0.0 | 0.0 | 0.00 | 0.00 | 0.00 | 77 | 1031.1 |
| 20260507190509 | 57 | 0 | 0.0 | 0.0 | 0.00 | 0.00 | 0.00 | 77 | 1031.1 |
| 20260507190027 | 57 | 0 | 0.0 | 0.0 | 0.00 | 0.00 | 0.00 | 77 | 1031.1 |
| 20260507185509 | 57 | 0 | 0.0 | 0.0 | 0.00 | 0.00 | 0.00 | 77 | 1031.1 |
| 20260507185009 | 57 | 0 | 0.0 | 1.0 | 0.00 | 0.00 | 0.00 | 77 | 1031.1 |
| 20260507184528 | 57 | 0 | 0.0 | 1.0 | 0.00 | 0.00 | 0.00 | 77 | 1031.0 |
| 20260507184010 | 57 | 0 | 0.0 | 1.0 | 0.00 | 0.00 | 0.00 | 77 | 1031.0 |
| 20260507183511 | 57 | 0 | 0.0 | 1.0 | 0.00 | 0.00 | 0.00 | 77 | 1031.0 |
| 20260507183028 | 57 | 0 | 0.0 | 2.0 | 0.00 | 0.00 | 0.00 | 77 | 1031.2 |
| 20260507182510 | 57 | 0 | 0.0 | 2.0 | 0.00 | 0.00 | 0.00 | 77 | 1031.1 |
| 20260507182016 | 57 | 210 | 0.0 | 3.0 | 0.00 | 0.00 | 0.00 | 76 | 1031.1 |
| 20260507181529 | 57 | 0 | 0.0 | 3.0 | 0.00 | 0.00 | 0.00 | 76 | 1031.0 |
| 20260507181009 | 57 | 0 | 0.0 | 3.0 | 0.00 | 0.00 | 0.00 | 76 | 1031.1 |
| 20260507180511 | 57 | 0 | 0.0 | 4.0 | 0.00 | 0.00 | 0.00 | 76 | 1031.2 |
| 20260507180026 | 57 | 0 | 0.0 | 4.0 | 0.00 | 0.00 | 0.00 | 76 | 1031.2 |
| 20260507175509 | 57 | 0 | 0.0 | 4.0 | 0.00 | 0.00 | 0.00 | 75 | 1031.2 |
| 20260507175011 | 57 | 0 | 0.0 | 4.0 | 0.00 | 0.00 | 0.00 | 75 | 1031.2 |
| 20260507174530 | 57 | 213 | 0.0 | 3.0 | 0.00 | 0.00 | 0.00 | 75 | 1031.3 |
| 20260507174010 | 57 | 0 | 0.0 | 2.0 | 0.00 | 0.00 | 0.00 | 75 | 1031.4 |
| 20260507173509 | 57 | 0 | 0.0 | 2.0 | 0.00 | 0.00 | 0.00 | 75 | 1031.3 |
| 20260507173040 | 57 | 0 | 0.0 | 0.0 | 0.00 | 0.00 | 0.00 | 75 | 1031.2 |
| 20260507172511 | 57 | 0 | 0.0 | 0.0 | 0.00 | 0.00 | 0.00 | 74 | 1031.2 |
| 20260507172012 | 57 | 0 | 0.0 | 0.0 | 0.00 | 0.00 | 0.00 | 74 | 1031.1 |
| 20260507171530 | 57 | 0 | 0.0 | 0.0 | 0.00 | 0.00 | 0.00 | 74 | 1031.0 |
| 20260507171012 | 57 | 0 | 0.0 | 0.0 | 0.00 | 0.00 | 0.00 | 74 | 1031.0 |
| 20260507170510 | 57 | 0 | 0.0 | 2.0 | 0.00 | 0.00 | 0.00 | 74 | 1031.1 |
| 20260507170029 | 57 | 0 | 0.0 | 2.0 | 0.00 | 0.00 | 0.00 | 74 | 1031.0 |
| 20260507165511 | 57 | 0 | 0.0 | 2.0 | 0.00 | 0.00 | 0.00 | 74 | 1031.3 |
| 20260507165008 | 58 | 0 | 0.0 | 2.0 | 0.00 | 0.00 | 0.00 | 74 | 1031.3 |
| 20260507164528 | 58 | 0 | 0.0 | 2.0 | 0.00 | 0.00 | 0.00 | 74 | 1031.3 |
| 20260507164011 | 58 | 0 | 0.0 | 2.0 | 0.00 | 0.00 | 0.00 | 74 | 1031.4 |
| 20260507163508 | 58 | 0 | 0.0 | 3.0 | 0.00 | 0.00 | 0.00 | 74 | 1031.5 |
| 20260507163030 | 58 | 214 | 0.0 | 4.0 | 0.00 | 0.00 | 0.00 | 74 | 1031.5 |
| 20260507162510 | 58 | 0 | 0.0 | 6.0 | 0.00 | 0.00 | 0.00 | 74 | 1031.5 |
| 20260507162010 | 58 | 0 | 1.0 | 6.0 | 0.00 | 0.00 | 0.00 | 74 | 1031.5 |
| 20260507161529 | 58 | 211 | 1.0 | 7.0 | 0.00 | 0.00 | 0.00 | 74 | 1031.6 |
| 20260507161009 | 58 | 214 | 2.0 | 7.0 | 0.00 | 0.00 | 0.00 | 74 | 1031.6 |
| 20260507160508 | 57 | 0 | 1.0 | 4.0 | 0.00 | 0.00 | 0.00 | 73 | 1031.6 |
| 20260507160030 | 57 | 0 | 0.0 | 3.0 | 0.00 | 0.00 | 0.00 | 73 | 1031.5 |
| 20260507155508 | 57 | 0 | 0.0 | 3.0 | 0.00 | 0.00 | 0.00 | 73 | 1031.5 |
| 20260507155013 | 57 | 0 | 0.0 | 2.0 | 0.00 | 0.00 | 0.00 | 73 | 1031.5 |
| 20260507154529 | 57 | 0 | 0.0 | 2.0 | 0.00 | 0.00 | 0.00 | 73 | 1031.6 |
| 20260507154012 | 57 | 0 | 0.0 | 7.0 | 0.00 | 0.00 | 0.00 | 74 | 1031.7 |
| 20260507153510 | 57 | 0 | 0.0 | 7.0 | 0.00 | 0.00 | 0.00 | 74 | 1031.7 |
| 20260507153027 | 57 | 268 | 0.0 | 6.0 | 0.00 | 0.00 | 0.00 | 73 | 1031.7 |
| 20260507152513 | 57 | 0 | 0.0 | 6.0 | 0.00 | 0.00 | 0.00 | 73 | 1031.8 |
| 20260507152008 | 56 | 269 | 1.0 | 6.0 | 0.00 | 0.00 | 0.00 | 74 | 1031.8 |
| 20260507151528 | 56 | 273 | 1.0 | 4.0 | 0.00 | 0.00 | 0.00 | 73 | 1031.8 |
| 20260507151008 | 56 | 275 | 1.0 | 4.0 | 0.00 | 0.00 | 0.00 | 73 | 1031.8 |
| 20260507150514 | 56 | 0 | 0.0 | 0.0 | 0.00 | 0.00 | 0.00 | 73 | 1031.8 |
| 20260507150030 | 56 | 0 | 0.0 | 0.0 | 0.00 | 0.00 | 0.00 | 73 | 1031.8 |
| 20260507145509 | 56 | 0 | 0.0 | 0.0 | 0.00 | 0.00 | 0.00 | 73 | 1031.8 |
| 20260507145008 | 56 | 0 | 0.0 | 0.0 | 0.00 | 0.00 | 0.00 | 73 | 1031.8 |
| 20260507144544 | 56 | 0 | 0.0 | 0.0 | 0.00 | 0.00 | 0.00 | 73 | 1031.7 |
| 20260507144009 | 56 | 0 | 0.0 | 0.0 | 0.00 | 0.00 | 0.00 | 73 | 1031.8 |